Weather History for KSPW - August, 2013

Change the Weather History Date:

Saturday, August 3, 2013

  Actual Average Record
Temperature  
Mean Temperature 64 °F -  
Max Temperature 79 °F 82 °F 95 °F (1983)
Min Temperature 51 °F 59 °F 47 °F (1971)
Growing Degree Days 14 (Base 50)    
Moisture  
Dew Point 53 °F    
Average Humidity 79    
Maximum Humidity 100    
Minimum Humidity 33    
Precipitation  
Precipitation 0.00 in - - ()
Sea Level Pressure  
Sea Level Pressure 30.13 in    
Wind  
Wind Speed 3 mph (North)    
Max Wind Speed 10 mph    
Max Gust Speed 17 mph    
Visibility 6 miles    
Events Fog    
Averages and records for this station are not official NWS values.
T = Trace of Precipitation, MM = Missing Value Source: NWS Daily Summary

Daily Weather History Graph

Daily Weather History Graph

Search for Another Location

Airport or City:

Trip Planner

Search our weather history database for the weather conditions in past years. The results will help you decide how hot, cold, wet, or windy it might be!

Date:

Astronomy

Aug. 03, 2013 Rise Set
Actual Time 6:13 AM CDT 8:39 PM CDT
Civil Twilight 5:41 AM CDT 9:11 PM CDT
Nautical Twilight 5:01 AM CDT 9:51 PM CDT
Astronomical Twilight 4:16 AM CDT 10:35 PM CDT
Moon 3:22 AM CDT (8/3) 6:23 PM CDT (8/3)
Length of Visible Light 15h 30m
Length of Day
14h 25m
Waning Crescent, 9% of the Moon is Illuminated
Aug 3
Waning Crescent
Aug 6
New
Aug 14
First Quarter
Aug 20
Full
Aug 28
Last Quarter

Hourly Weather History & Observations

Time (CDT) Temp. Dew Point Humidity Pressure Visibility Wind Dir Wind Speed Gust Speed Precip Events Conditions
12:08 AM 55.4 °F 53.6 °F 94% 30.08 in 2.5 mi NW 3.5 mph - N/A   Partly Cloudy
12:15 AM 55.4 °F 55.4 °F 100% 30.08 in 3.0 mi WNW 3.5 mph - N/A   Mostly Cloudy
12:43 AM 55.4 °F 55.4 °F 100% 30.08 in 1.5 mi Calm Calm - N/A   Overcast
12:47 AM 57.2 °F 55.4 °F 94% 30.08 in 0.2 mi Calm Calm - N/A Fog Fog
12:53 AM 54.0 °F 53.1 °F 97% 30.09 in 0.2 mi NW 3.5 mph - N/A Fog Fog
1:09 AM 55.4 °F 53.6 °F 94% 30.08 in 0.8 mi NNW 3.5 mph - N/A   Mist
1:11 AM 55.4 °F 53.6 °F 94% 30.08 in 1.2 mi North 3.5 mph - N/A   Scattered Clouds
1:16 AM 53.6 °F 53.6 °F 100% 30.08 in 3.0 mi Calm Calm - N/A   Partly Cloudy
1:18 AM 53.6 °F 51.8 °F 94% 30.09 in 1.8 mi NNW 3.5 mph - N/A   Partly Cloudy
1:27 AM 53.6 °F 53.6 °F 100% 30.09 in 0.5 mi NNW 3.5 mph - N/A Fog Fog
1:42 AM 53.6 °F 51.8 °F 94% 30.09 in 2.0 mi Calm Calm - N/A   Clear
1:49 AM 53.6 °F 53.6 °F 100% 30.10 in 4.0 mi Calm Calm - N/A   Clear
1:53 AM 54.0 °F 53.1 °F 97% 30.10 in 4.0 mi Calm Calm - N/A   Clear
2:14 AM 53.6 °F 51.8 °F 94% 30.10 in 1.5 mi NNW 3.5 mph - N/A   Clear
2:24 AM 51.8 °F 51.8 °F 100% 30.10 in 3.0 mi Calm Calm - N/A   Clear
2:53 AM 53.1 °F 52.0 °F 96% 30.10 in 6.0 mi NW 3.5 mph - N/A   Clear
3:53 AM 53.1 °F 51.1 °F 93% 30.11 in 8.0 mi NW 3.5 mph - N/A   Clear
4:53 AM 51.1 °F 50.0 °F 96% 30.11 in 9.0 mi NNW 5.8 mph - N/A   Clear
5:53 AM 51.1 °F 50.0 °F 96% 30.13 in 7.0 mi NW 3.5 mph - N/A   Clear
6:53 AM 52.0 °F 51.1 °F 97% 30.14 in 5.0 mi Calm Calm - N/A   Clear
7:53 AM 57.9 °F 54.0 °F 87% 30.16 in 10.0 mi NNW 5.8 mph - N/A   Clear
8:53 AM 64.0 °F 55.9 °F 75% 30.17 in 10.0 mi NNE 5.8 mph - N/A   Clear
9:53 AM 70.0 °F 55.9 °F 61% 30.17 in 10.0 mi North 4.6 mph - N/A   Clear
10:53 AM 73.0 °F 54.0 °F 51% 30.18 in 10.0 mi NE 5.8 mph - N/A   Clear
11:53 AM 75.0 °F 51.1 °F 43% 30.19 in 10.0 mi North 6.9 mph - N/A   Clear
12:53 PM 73.9 °F 50.0 °F 43% 30.19 in 10.0 mi ENE 4.6 mph - N/A   Clear
1:53 PM 75.0 °F 51.1 °F 43% 30.19 in 10.0 mi NE 4.6 mph - N/A   Clear
2:53 PM 75.0 °F 50.0 °F 41% 30.19 in 10.0 mi North 8.1 mph - N/A   Clear
3:53 PM 78.1 °F 52.0 °F 40% 30.18 in 10.0 mi NNE 10.4 mph 17.3 mph N/A   Clear
4:53 PM 78.1 °F 48.9 °F 36% 30.17 in 10.0 mi NE 6.9 mph - N/A   Clear
5:53 PM 78.1 °F 46.9 °F 33% 30.16 in 10.0 mi NE 9.2 mph - N/A   Clear
6:53 PM 77.0 °F 51.1 °F 40% 30.16 in 10.0 mi NNE 8.1 mph - N/A   Clear
7:53 PM 73.0 °F 54.0 °F 51% 30.17 in 10.0 mi NE 3.5 mph - N/A   Clear
8:53 PM 64.0 °F 57.9 °F 80% 30.17 in 10.0 mi Calm Calm - N/A   Clear
9:53 PM 59.0 °F 55.9 °F 90% 30.19 in 10.0 mi Calm Calm - N/A   Clear
10:53 PM 57.9 °F 55.0 °F 90% 30.22 in 10.0 mi Calm Calm - N/A   Clear
11:53 PM 55.9 °F 54.0 °F 93% 30.22 in 10.0 mi Calm Calm - N/A   Clear